Probability
23 24 23 17 11 9 11 12 10 7 7 7 6 5 5 5 6 6 6 6 6 6 5 5 6 7 10 11 7 3 0 0 0 0 0 0 1 2 4 5 4 1 0
22 23 22 17 12 9 9 10 8 7 6 6 5 5 4 4 6 6 6 6 6 6 6 6 6 7 9 9 7 3 1 0 0 0 0 0 1 3 5 5 3 1 0
21 21 21 18 14 10 7 6 6 6 5 4 4 4 3 4 5 6 6 6 6 6 6 6 6 7 8 7 5 3 1 0 0 0 0 0 1 3 5 5 3 1 1
21 21 21 18 14 10 6 4 4 4 4 4 4 4 3 3 4 4 5 6 6 5 5 4 5 6 6 4 2 1 1 0 0 0 0 1 2 4 6 6 4 3 2
21 20 19 17 13 9 6 3 3 3 4 4 5 5 4 3 2 3 3 4 3 3 2 1 2 3 3 2 0 0 0 0 0 0 0 1 2 4 7 7 4 3 2
22 20 19 16 13 9 6 4 4 4 5 6 6 6 4 1 1 1 1 2 1 1 0 0 0 1 1 0 0 0 0 0 0 0 0 1 1 4 6 5 3 1 1
23 22 20 18 13 9 6 5 6 6 7 7 7 5 3 1 0 0 0 0 0 0 0 0 0 0 0 0 0 0 0 0 0 0 0 0 0 3 5 4 3 1 1
22 22 22 19 14 10 8 9 10 10 10 9 8 6 4 1 0 0 0 0 0 0 0 0 0 0 0 0 0 0 0 0 0 0 0 0 0 2 4 4 3 3 2
22 22 22 20 17 15 13 14 15 14 13 11 10 7 5 3 1 0 0 0 0 0 1 1 0 0 0 0 0 0 0 0 0 0 0 0 0 1 2 2 3 3 3
23 23 21 19 18 19 19 20 20 17 13 11 9 7 5 4 2 0 0 0 0 1 2 2 1 0 0 0 0 0 0 0 0 0 0 0 1 1 1 1 3 3 3
23 22 20 18 17 18 20 22 21 17 11 9 9 7 6 4 2 1 0 0 1 1 2 2 1 0 0 0 0 0 0 0 0 1 0 1 2 3 2 1 2 3 2
19 19 18 18 16 16 19 21 21 16 10 9 8 7 6 4 2 1 0 0 0 1 2 2 1 0 0 0 0 0 0 0 0 0 0 0 1 1 1 1 2 2 2
14 17 18 19 18 17 19 21 20 15 11 10 9 7 5 4 3 1 0 0 0 1 1 1 0 0 0 0 0 0 0 0 0 0 0 0 0 0 0 1 2 3 2
13 14 16 17 18 18 19 20 18 14 12 12 10 7 5 3 3 2 1 0 0 0 0 0 0 0 0 0 0 0 0 0 0 0 0 0 0 0 0 1 2 2 2
11 10 10 10 11 14 16 15 13 11 10 10 10 9 6 3 3 3 2 1 0 0 0 0 0 0 0 0 0 0 0 1 1 0 0 0 0 0 0 1 1 1 1
10 8 5 5 5 8 10 10 9 7 5 5 6 6 4 3 1 1 1 0 0 0 0 0 0 0 0 0 0 0 1 2 2 1 1 0 0 0 1 1 1 0 0
10 8 4 3 3 4 5 6 6 4 2 1 2 1 1 1 1 0 0 0 0 0 0 0 1 1 1 0 0 1 1 2 2 2 2 1 1 1 1 1 1 0 0
7 6 4 3 3 2 2 3 3 3 2 2 1 0 0 0 0 0 0 0 0 0 0 0 1 1 1 1 1 2 2 1 2 2 2 2 2 1 1 0 0 0 0
3 3 3 2 1 1 1 1 1 2 3 4 2 0 0 0 0 0 0 0 0 0 0 0 0 2 3 3 4 4 3 2 2 1 1 2 2 1 0 0 0 0 0
2 1 1 1 1 0 0 0 0 1 3 3 2 1 0 0 0 0 0 0 0 0 1 1 1 3 5 6 7 5 3 1 1 0 1 1 1 0 1 1 1 1 1
1 0 0 0 0 1 1 1 1 1 3 3 2 1 0 0 0 0 1 1 0 1 2 2 3 5 7 8 7 4 1 0 0 0 0 0 0 1 2 2 2 2 2
2 1 1 1 1 1 2 2 2 3 3 4 5 2 0 0 1 2 3 3 2 2 3 4 4 5 7 7 6 3 0 0 1 1 0 0 1 2 3 3 3 3 3
3 2 2 2 2 1 1 2 3 3 4 6 7 5 3 2 3 4 5 5 5 5 5 6 6 6 6 5 4 2 0 0 1 1 0 0 1 2 3 3 3 3 3
3 2 2 2 2 1 1 1 1 2 3 6 9 9 6 6 6 6 6 6 7 8 8 8 8 8 7 5 2 1 0 0 1 1 0 0 1 1 1 2 2 2 1
2 2 1 1 1 1 1 0 0 2 3 6 9 9 9 8 7 7 7 7 7 8 9 8 8 8 7 4 1 0 0 0 0 0 0 0 0 0 0 1 1 1 0
1 1 0 0 0 1 1 0 1 2 4 6 7 9 9 9 8 7 7 7 7 7 8 8 7 6 5 2 1 0 0 0 0 0 0 0 0 0 0 0 0 0 0
Wind_Speed
7 6 5 5 4 4 3 3 2 2 2 2 3 2 2 2 2 1 2 2 2 2 2 2 2 1 1 1 1 0 0 0 1 1 1 1 2 2 2 3 4 5 5
6 6 5 5 5 4 3 3 3 3 3 3 2 2 2 2 3 3 3 2 2 3 3 2 2 2 1 1 1 1 1 1 1 2 1 1 2 3 4 4 4 4 4
7 7 6 5 5 4 3 3 3 3 3 3 2 2 2 2 3 3 3 2 2 2 2 3 3 2 2 2 2 1 1 1 1 1 2 1 2 2 2 3 3 2 4
6 6 6 5 5 4 4 3 3 3 3 3 3 3 3 3 3 3 3 3 3 3 3 3 3 3 3 2 2 2 1 1 1 2 2 1 1 1 2 2 2 2 3
6 6 6 5 5 4 4 4 3 3 4 3 3 3 3 3 3 3 3 4 3 3 3 2 3 3 3 3 3 1 1 1 2 2 2 1 1 1 1 2 1 2 2
6 5 5 5 5 5 4 4 4 3 3 3 3 3 3 3 3 3 3 3 3 3 3 2 3 4 4 4 3 3 3 3 3 2 2 2 2 1 1 1 1 1 2
6 5 5 5 5 5 5 4 4 3 3 3 3 3 3 3 5 5 4 2 2 3 3 3 4 3 4 3 4 5 5 7 7 4 4 3 3 2 1 2 2 2 3
5 5 5 5 4 4 4 4 3 3 3 3 4 4 3 4 6 5 4 4 3 3 4 4 4 3 2 2 2 3 4 4 5 5 4 4 3 2 2 3 3 3 3
5 5 5 5 4 3 3 3 2 2 3 4 4 4 4 4 7 7 5 3 4 5 5 5 4 4 4 3 3 3 3 3 3 3 4 5 5 4 3 1 3 2 3
4 4 4 4 4 3 3 3 2 2 3 4 4 4 4 5 8 9 7 4 4 4 4 4 5 5 6 6 4 3 4 3 2 2 3 4 5 6 7 5 4 3 3
4 4 4 4 4 3 3 2 2 3 3 3 4 4 4 5 8 10 9 4 4 3 3 3 4 8 8 7 6 4 4 3 2 3 3 4 4 3 4 5 5 4 3
3 4 4 3 3 3 3 3 3 3 4 4 3 3 3 4 6 9 11 9 5 3 3 2 2 7 8 8 6 6 4 3 3 3 4 4 3 3 3 4 5 5 4
3 3 3 3 3 3 4 4 3 3 3 3 3 3 3 3 4 8 9 9 8 4 2 1 2 6 6 6 8 7 5 4 4 4 4 3 3 3 3 3 4 4 4
3 2 2 3 4 4 4 4 4 4 4 3 3 3 3 3 3 3 4 5 6 5 4 3 5 7 6 5 4 5 5 5 5 4 3 3 2 2 3 3 3 3 3
3 3 3 3 4 4 4 3 5 3 3 3 2 2 1 2 2 3 3 3 3 2 2 3 3 3 4 5 4 5 5 5 5 4 4 3 2 2 2 2 3 3 3
3 3 3 3 3 4 4 3 2 2 4 4 3 1 1 2 4 4 4 3 3 4 2 3 4 4 5 5 5 5 5 5 5 4 3 3 3 3 3 2 3 3 3
3 3 3 3 3 3 3 3 2 2 2 3 3 3 3 3 4 4 4 3 2 4 3 4 4 4 4 4 4 4 4 4 3 3 3 3 3 3 2 2 2 2 2
4 4 4 3 3 3 3 3 3 3 4 4 5 7 7 6 6 5 4 3 2 4 5 5 5 4 4 4 3 3 3 3 3 3 2 2 2 2 2 2 3 3 3
4 3 3 3 3 4 4 4 4 4 3 3 3 4 7 6 4 4 4 4 4 4 5 5 5 4 4 3 3 2 2 2 3 3 3 2 2 2 3 3 3 3 3
3 4 4 4 4 4 4 4 4 3 3 3 3 3 5 4 3 4 5 5 5 5 5 5 4 4 3 3 2 2 2 2 3 2 2 3 2 3 3 3 3 3 3
3 4 6 6 5 4 4 4 4 4 4 4 3 3 6 5 5 5 5 5 5 5 5 4 3 3 3 3 3 3 3 2 2 2 3 3 3 2 2 3 3 2 2
4 4 4 4 3 3 3 4 4 4 4 4 2 3 7 5 4 4 4 4 5 5 4 4 4 3 3 2 2 2 2 2 2 1 2 2 2 3 3 3 2 2 2
4 4 4 4 4 4 4 4 3 3 3 3 3 2 4 4 3 3 3 3 3 3 3 3 2 2 1 1 1 2 1 1 1 1 1 2 2 2 2 3 3 3 2
5 4 4 4 4 4 4 3 3 3 4 3 2 2 2 2 2 3 2 2 2 2 2 2 2 2 2 1 1 1 1 0 0 1 1 2 2 3 3 2 2 3 2
5 4 4 3 3 3 3 3 3 2 2 2 2 2 2 2 2 2 1 1 1 1 2 2 1 2 2 2 2 2 2 3 2 1 1 1 2 3 3 3 2 2 2
4 3 3 3 2 2 2 2 2 2 2 2 2 2 2 2 2 2 1 1 1 1 2 2 1 1 1 3 4 4 3 3 2 1 1 1 2 2 2 2 3 2 2
Wind_Direction
175 174 163 168 173 183 183 168 165 168 176 180 176 171 172 167 174 193 211 198 204 213 226 205 196 244 300 306 312 277 235 265 263 292 240 175 162 174 172 196 184 187 189
173 167 166 168 175 185 183 172 175 178 182 187 173 175 187 179 185 204 214 214 209 213 222 215 211 215 202 270 301 296 272 245 231 255 256 201 191 185 188 206 206 203 198
170 167 167 174 175 180 180 175 180 185 183 184 185 192 209 199 195 205 208 217 223 226 220 215 214 213 217 214 231 247 262 269 235 239 251 222 197 190 190 229 229 217 221
163 165 166 171 174 178 181 181 187 187 189 189 196 206 214 213 200 201 204 215 221 224 225 222 221 216 215 221 229 223 240 270 263 243 239 235 214 201 196 220 238 236 246
163 169 168 169 174 179 181 186 187 189 202 194 203 218 220 217 204 206 209 211 212 220 224 223 224 201 202 221 237 224 234 246 260 252 245 243 227 215 219 235 239 260 264
165 170 167 169 174 177 184 189 192 198 208 204 211 218 223 220 179 184 211 219 208 215 222 227 217 200 198 208 217 227 220 229 245 250 259 246 241 240 220 260 262 279 276
166 171 165 173 181 179 189 187 193 198 209 219 222 217 217 209 182 179 192 215 226 221 224 230 245 210 192 202 211 228 233 231 225 231 252 255 248 238 219 259 260 261 267
170 172 166 172 177 178 184 184 189 190 207 226 233 226 215 205 189 186 190 214 238 238 228 224 223 219 216 216 233 228 224 226 224 221 238 249 250 252 228 232 241 258 261
174 175 171 170 169 178 181 179 183 191 215 228 229 223 213 198 195 191 191 220 229 235 235 224 214 204 186 210 240 253 250 241 239 226 223 238 236 248 243 233 242 245 261
178 178 175 165 172 185 171 174 183 203 222 230 226 223 216 200 193 193 195 228 236 234 229 216 207 196 190 202 221 244 252 253 254 247 253 252 240 235 225 215 224 233 248
181 180 168 163 177 180 162 181 200 217 227 236 234 223 214 197 186 193 195 219 243 251 239 216 196 189 197 208 218 232 240 265 268 253 240 238 231 218 210 208 209 213 232
172 173 166 169 198 183 168 197 212 216 224 233 236 231 211 187 182 193 198 212 236 257 258 246 176 181 197 209 219 228 231 248 254 253 248 239 226 220 217 208 208 214 219
159 172 173 181 197 185 183 203 213 216 221 221 220 225 217 193 182 185 200 217 228 241 266 266 198 196 201 215 229 228 220 227 235 245 246 240 225 218 214 207 202 211 221
164 174 190 199 205 197 196 202 211 216 220 225 220 224 216 192 182 179 194 210 221 231 244 236 217 212 223 236 225 216 217 224 227 235 240 235 223 219 214 204 204 203 219
173 183 208 225 218 206 208 211 219 218 216 222 233 240 220 193 191 184 187 195 199 193 202 213 216 207 214 216 215 214 215 218 226 233 236 237 228 227 229 215 210 214 220
191 200 216 225 216 215 212 215 199 194 180 177 168 173 123 141 153 155 163 167 169 164 188 231 231 227 227 223 216 214 215 216 212 214 217 218 220 223 223 222 220 222 231
211 214 223 232 229 227 223 217 203 196 206 211 202 193 195 189 189 183 175 165 179 167 203 233 242 242 240 234 224 217 213 210 203 198 207 216 218 220 224 227 228 228 236
222 229 230 231 231 239 238 233 230 216 206 220 220 213 210 211 212 211 187 156 203 205 225 235 241 240 239 241 232 220 211 195 191 194 202 215 216 216 229 241 240 231 232
224 232 230 235 235 238 237 239 242 240 231 223 198 189 206 212 218 217 191 219 235 234 233 235 239 240 241 233 230 223 210 196 190 192 198 211 215 224 234 239 239 234 238
225 230 231 240 241 236 238 238 238 232 237 243 235 184 167 183 202 199 206 223 238 247 246 245 244 235 229 231 225 219 206 199 195 200 211 216 217 229 243 248 246 230 224
241 227 221 234 241 241 244 242 238 235 234 236 237 192 173 195 214 213 212 215 225 238 245 247 247 241 225 216 217 216 213 204 201 214 224 222 222 229 241 250 256 252 239
246 239 233 240 243 243 252 259 255 246 242 244 239 195 189 213 228 225 227 221 220 226 233 237 241 243 231 221 213 203 199 211 224 224 241 239 228 233 236 244 252 257 249
252 244 237 238 245 243 246 249 251 258 257 247 241 213 198 225 246 251 245 236 224 224 226 225 229 240 236 199 176 180 183 203 225 229 247 259 253 247 239 240 248 255 259
249 246 242 237 234 241 248 255 259 261 257 252 257 246 235 230 243 252 252 237 220 223 225 218 215 219 215 202 187 152 118 101 329 274 256 259 263 265 256 250 254 254 257
252 249 250 248 237 238 252 256 258 267 272 265 259 247 248 259 267 271 272 258 253 234 240 245 228 210 200 174 113 85 80 83 65 1 301 272 273 285 286 284 276 266 258
262 252 256 251 249 252 252 261 265 268 272 271 269 266 263 274 289 303 295 271 268 257 244 239 209 189 130 109 109 106 101 92 69 25 310 273 274 277 289 288 287 283 272